Lid_Strength_Index
1 -0 -2 -2 -2 -2 -2 -2 -2 -2 -2 -2 -2 -2 -2 -2 -2 -2 -2 -2 -2 -2 -2 -2 -2 -2 -2 -2 -2 -2 -2 -2 -2 -1 -1 -2 -2 -2 -2 -2 -2 -1 -2
0 -0 -1 -2 -2 -2 -2 -2 -2 -2 -2 -2 -2 -2 -2 -2 -2 -2 -2 -3 -2 -2 -2 -2 -2 -2 -2 -2 -2 -2 -2 -2 -2 -2 -1 -2 -2 -2 -2 -2 -2 -1 -2
0 -1 -1 -1 -2 -1 -2 -2 -2 -2 -2 -2 -2 -2 -2 -2 -2 -2 -2 -2 -2 -2 -2 -2 -2 -2 -2 -2 -2 -2 -2 -2 -2 -2 -2 -0 -0 -2 -2 -2 -2 -2 -2
-0 -0 -1 -1 -2 -2 -2 -2 -2 -2 -2 -2 -2 -2 -2 -2 -2 -2 -2 -2 -2 -2 -2 -2 -2 -2 -2 -2 -2 -2 -2 -2 -2 -3 -0 -0 -1 -2 -2 -2 -2 -2 -2
-0 -0 -1 -1 -2 -2 -2 -2 -2 -2 -2 -2 -2 -2 -2 -2 -2 -2 -2 -2 -2 -2 -2 -2 -2 -2 -2 -2 -2 -2 -2 -2 -2 -1 0 0 0 -1 -2 -2 -2 -2 -2
0 -0 -1 -1 -2 -2 -2 -1 -2 -2 -2 -2 -2 -2 -2 -2 -2 -2 -2 -2 -2 -2 -2 -2 -2 -2 -2 -2 -2 -2 -2 -2 -2 0 -0 -1 -0 -2 -2 -2 -2 -2 -2
0 -0 -1 -1 -1 -2 -2 -2 -2 -2 -2 -2 -2 -2 -2 -2 -2 -2 -2 -2 -2 -2 -2 -2 -2 -2 -2 -2 -2 -2 -2 -2 -1 -0 -0 -0 -0 -2 -2 -2 -2 -2 -2
0 -0 -1 -0 -1 -1 -1 -2 -2 -2 -2 -2 -2 -2 -2 -2 -2 -2 -2 -2 -2 -2 -2 -2 -1 -1 -1 -1 -2 -2 -2 -1 -1 -0 -0 -0 -2 -2 -2 -2 -2 -2 -2
-0 -0 -0 -0 -0 -0 -1 -1 -1 -2 -2 -2 -2 -2 -2 -2 -2 -2 -2 -2 -2 -2 -1 -1 -1 -1 -1 -1 -1 -1 -1 -1 -0 -0 -1 -0 -2 -2 -2 -2 -2 -2 -2
0 -0 -0 -0 -0 -0 -0 0 -0 -1 -1 -1 -2 -1 -1 -2 -2 -1 -1 -2 -1 -1 -1 -1 -1 -1 -1 -1 -1 -1 -1 -1 0 0 -0 -1 -2 -2 -2 -2 -2 -2 -2
1 0 -0 0 0 -0 -1 1 1 -0 -1 -0 -0 -0 0 -1 -0 -1 -1 -1 -2 -2 -1 -1 -1 -2 -1 -1 -1 -1 -0 1 1 1 0 -2 -2 -2 -2 -2 -2 -2 -2
2 1 1 1 0 -0 -1 -0 -0 -1 -0 -0 -1 0 -0 0 0 -1 1 1 -0 -0 -2 -2 -2 -1 -0 -0 -0 -0 1 2 2 2 1 -1 -2 -2 -2 -2 -2 -2 -2
2 2 1 1 0 0 0 0 0 0 0 0 0 0 0 0 1 1 0 0 1 1 -0 -1 -0 -0 0 -0 0 1 2 3 3 4 3 -0 -1 -1 -2 -2 -2 -2 -2
2 2 1 1 1 1 1 1 0 0 0 0 0 0 0 1 1 0 1 0 0 -0 1 1 0 0 1 1 1 2 2 2 3 5 4 2 1 -0 -1 -1 -1 -2 -2
2 2 1 1 1 1 1 1 1 1 0 0 0 -0 0 0 1 1 1 -0 0 1 2 2 1 1 2 1 2 2 3 3 3 6 6 4 3 1 0 -1 -1 -1 -2
2 2 1 1 1 1 1 1 1 1 0 0 0 0 -0 0 1 0 0 1 1 2 2 2 1 1 2 2 3 3 3 4 5 6 7 7 5 3 2 0 -0 -1 -2
2 1 1 1 1 1 1 1 1 0 0 1 0 0 0 -0 -0 0 1 1 2 2 2 1 1 1 2 2 3 4 5 6 8 8 8 9 8 6 4 2 0 -1 -1
2 1 1 1 1 1 1 1 1 1 1 0 1 1 1 0 0 1 2 3 3 3 2 1 2 2 2 3 3 5 6 7 8 9 9 10 10 9 7 4 2 1 -0
2 1 1 1 1 1 1 1 1 1 1 0 1 1 1 2 2 2 3 4 3 3 3 2 2 2 3 4 5 6 7 8 8 9 10 10 10 9 9 5 5 3 2
2 1 1 1 1 1 1 1 1 1 1 1 1 2 2 3 3 4 4 4 4 5 4 3 3 3 4 5 5 7 8 8 8 10 11 10 10 10 9 9 8 7 4
2 2 1 1 1 1 2 2 2 1 3 4 4 4 4 4 4 4 5 6 6 6 5 3 4 5 5 6 7 9 9 9 10 10 10 10 11 10 10 10 10 10 8
2 2 2 1 1 1 1 2 2 2 3 4 6 7 6 6 5 5 6 7 8 8 7 5 4 5 6 5 6 8 11 11 10 10 10 10 11 10 10 10 11 10 10
3 2 2 1 1 1 1 2 3 3 5 6 7 8 8 6 7 6 7 8 9 9 9 7 6 6 7 7 7 7 9 10 10 10 11 11 11 11 11 11 11 11 10
2 2 2 1 1 1 1 1 4 5 6 6 8 8 8 8 7 7 8 9 9 10 10 10 9 7 7 9 9 7 8 8 10 12 11 11 10 10 11 11 12 12 11
2 2 2 2 1 1 1 1 4 4 4 7 8 9 10 9 8 9 9 10 10 10 11 11 10 11 10 9 10 10 10 10 9 10 12 12 11 11 11 12 12 13 12
3 3 2 2 2 1 1 2 4 4 5 7 9 10 10 10 11 10 10 11 10 11 11 11 11 11 12 12 12 12 12 12 12 12 12 11 11 11 12 12 12 13 13